Location: Praha
(50.0830°N, 14.4670°E)
Time: 05:02:22
(UTC+01:00)

ISS - Pass Details

Date: 24 February 2021
Orbit: 417 x 422 km, 51.6° (Epoch: 03 March)

Event Time Altitude Azimuth Distance (km) Brightness Sun altitude
Exits shadow 05:35:33 17° 224° (SW) 1,144 -2.0 -13.6°
Maximum altitude 05:37:53 49° 153° (SSE) 549 -3.0 -13.2°
Drops below altitude 10° 05:41:09 10° 78° (ENE) 1,499 0.4 -12.7°
Sets 05:43:17 0° 73° (ENE) 2,366 1.6 -12.3°
